When you browse on this site, cookies collect data to enhance your experience and personalize the content and advertising you see.
Visit our Privacy Policy to learn more. By continuing to use the site, you agree to this use of cookies and data.
  • în România
  • Lista ţărilor
  • Pe 7 zile
  • Temperatura apei
  • Meteo pe hartă
  • Widget-uri
  • user-avatar
    Intrare

    Meteo pe oră la Newport

    Astăzi, 6 Iunie, Sâmbătă

    Timp Temperatura Precipitaţii Vânt Presiune Umiditate
    00:00 +6°C° 0 mm 7 m/s 746 mmHg 85%
    01:00 +5°C° 0 mm 7 m/s 747 mmHg 84%
    02:00 +5°C° 0 mm 8 m/s 747 mmHg 83%
    03:00 +5°C° 0 mm 8 m/s 747 mmHg 82%
    04:00 +5°C° 0 mm 8 m/s 747 mmHg 78%
    05:00 +6°C° 0 mm 9 m/s 747 mmHg 74%
    06:00 +6°C° 0 mm 9 m/s 747 mmHg 73%
    07:00 +7°C° 0 mm 9 m/s 747 mmHg 70%
    08:00 +8°C° 0 mm 10 m/s 747 mmHg 67%
    09:00 +8°C° 0 mm 10 m/s 747 mmHg 64%
    10:00 +9°C° 0 mm 11 m/s 747 mmHg 65%
    11:00 +9°C° 0 mm 11 m/s 747 mmHg 66%
    12:00 +10°C° 0 mm 12 m/s 747 mmHg 67%
    13:00 +11°C° 0.1 mm 11 m/s 747 mmHg 73%
    14:00 +9°C° 0.1 mm 11 m/s 747 mmHg 79%
    15:00 +8°C° 0.1 mm 10 m/s 747 mmHg 86%
    16:00 +9°C° 0.1 mm 10 m/s 747 mmHg 85%
    17:00 +11°C° 0.1 mm 9 m/s 747 mmHg 83%
    18:00 +11°C° 0.1 mm 9 m/s 747 mmHg 82%
    19:00 +11°C° 0.1 mm 8 m/s 748 mmHg 84%
    20:00 +10°C° 0.1 mm 7 m/s 748 mmHg 86%
    21:00 +9°C° 0.1 mm 7 m/s 749 mmHg 88%
    22:00 +9°C° 0 mm 6 m/s 749 mmHg 90%
    23:00 +8°C° 0 mm 6 m/s 749 mmHg 91%

    Mâine, 7 Iunie, Duminică

    Timp Temperatura Precipitaţii Vânt Presiune Umiditate
    00:00 +7°C° 0 mm 5 m/s 749 mmHg 92%
    01:00 +7°C° 0 mm 5 m/s 750 mmHg 92%
    02:00 +7°C° 0 mm 4 m/s 750 mmHg 92%
    03:00 +6°C° 0 mm 4 m/s 750 mmHg 92%
    04:00 +8°C° 0 mm 3 m/s 750 mmHg 91%
    05:00 +9°C° 0 mm 3 m/s 751 mmHg 89%
    06:00 +9°C° 0 mm 3 m/s 751 mmHg 88%
    07:00 +12°C° 0 mm 2 m/s 752 mmHg 81%
    08:00 +14°C° 0 mm 2 m/s 752 mmHg 75%
    09:00 +15°C° 0 mm 2 m/s 753 mmHg 69%
    10:00 +16°C° 0 mm 3 m/s 753 mmHg 66%
    11:00 +17°C° 0 mm 3 m/s 753 mmHg 64%
    12:00 +17°C° 0 mm 4 m/s 753 mmHg 62%
    13:00 +18°C° 0.1 mm 4 m/s 753 mmHg 64%
    14:00 +17°C° 0.1 mm 5 m/s 754 mmHg 66%
    15:00 +17°C° 0.1 mm 5 m/s 754 mmHg 67%
    16:00 +16°C° 0.4 mm 5 m/s 754 mmHg 73%
    17:00 +15°C° 0.4 mm 4 m/s 754 mmHg 79%
    18:00 +15°C° 0.4 mm 4 m/s 754 mmHg 84%
    19:00 +13°C° 0.1 mm 5 m/s 755 mmHg 86%
    20:00 +12°C° 0.1 mm 5 m/s 756 mmHg 88%
    21:00 +10°C° 0.1 mm 6 m/s 757 mmHg 90%
    22:00 +9°C° 0 mm 6 m/s 757 mmHg 91%
    23:00 +9°C° 0 mm 6 m/s 757 mmHg 91%

    Poimâine, 8 Iunie, Luni

    Timp Temperatura Precipitaţii Vânt Presiune Umiditate
    00:00 +8°C° 0 mm 5 m/s 757 mmHg 92%
    01:00 +8°C° 0 mm 5 m/s 757 mmHg 92%
    02:00 +7°C° 0 mm 5 m/s 758 mmHg 93%
    03:00 +7°C° 0 mm 4 m/s 758 mmHg 93%
    04:00 +7°C° 0 mm 5 m/s 758 mmHg 92%
    05:00 +8°C° 0 mm 5 m/s 758 mmHg 91%
    06:00 +8°C° 0 mm 5 m/s 759 mmHg 90%
    07:00 +9°C° 0 mm 5 m/s 759 mmHg 84%
    08:00 +10°C° 0 mm 5 m/s 760 mmHg 78%
    09:00 +13°C° 0 mm 5 m/s 760 mmHg 73%
    10:00 +14°C° 0 mm 4 m/s 760 mmHg 68%
    11:00 +15°C° 0 mm 4 m/s 760 mmHg 63%
    12:00 +17°C° 0 mm 3 m/s 760 mmHg 58%
    13:00 +17°C° 0 mm 3 m/s 760 mmHg 58%
    14:00 +17°C° 0 mm 3 m/s 760 mmHg 59%
    15:00 +17°C° 0 mm 3 m/s 761 mmHg 59%
    16:00 +17°C° 0 mm 4 m/s 761 mmHg 61%
    17:00 +15°C° 0 mm 4 m/s 760 mmHg 62%
    18:00 +15°C° 0 mm 4 m/s 760 mmHg 64%
    19:00 +13°C° 0 mm 4 m/s 761 mmHg 68%
    20:00 +12°C° 0 mm 4 m/s 761 mmHg 71%
    21:00 +10°C° 0 mm 4 m/s 762 mmHg 75%
    22:00 +8°C° 0 mm 4 m/s 762 mmHg 77%
    23:00 +9°C° 0 mm 3 m/s 762 mmHg 79%

    9 Iunie, Marţi

    Timp Temperatura Precipitaţii Vânt Presiune Umiditate
    00:00 +8°C° 0 mm 3 m/s 762 mmHg 81%
    01:00 +8°C° 0 mm 3 m/s 762 mmHg 83%
    02:00 +7°C° 0 mm 3 m/s 762 mmHg 84%
    03:00 +7°C° 0 mm 3 m/s 762 mmHg 85%
    04:00 +8°C° 0 mm 2 m/s 762 mmHg 82%
    05:00 +9°C° 0 mm 2 m/s 762 mmHg 78%
    06:00 +10°C° 0 mm 2 m/s 762 mmHg 75%
    07:00 +12°C° 0 mm 2 m/s 762 mmHg 70%
    08:00 +13°C° 0 mm 2 m/s 762 mmHg 66%
    09:00 +14°C° 0 mm 2 m/s 762 mmHg 62%
    10:00 +15°C° 0 mm 2 m/s 762 mmHg 62%
    11:00 +15°C° 0 mm 2 m/s 762 mmHg 63%
    12:00 +15°C° 0 mm 2 m/s 762 mmHg 64%
    13:00 +14°C° 0 mm 3 m/s 762 mmHg 64%
    14:00 +14°C° 0 mm 3 m/s 762 mmHg 65%
    15:00 +15°C° 0 mm 4 m/s 762 mmHg 66%
    16:00 +14°C° 0 mm 4 m/s 762 mmHg 68%
    17:00 +14°C° 0 mm 4 m/s 762 mmHg 70%
    18:00 +14°C° 0 mm 4 m/s 761 mmHg 72%
    19:00 +13°C° 0 mm 4 m/s 762 mmHg 75%
    20:00 +12°C° 0 mm 3 m/s 762 mmHg 79%
    21:00 +11°C° 0 mm 3 m/s 762 mmHg 82%
    22:00 +11°C° 0 mm 3 m/s 762 mmHg 84%
    23:00 +12°C° 0 mm 2 m/s 762 mmHg 86%

    10 Iunie, Miercuri

    Timp Temperatura Precipitaţii Vânt Presiune Umiditate
    00:00 +10°C° 0 mm 2 m/s 762 mmHg 87%
    01:00 +10°C° 0 mm 2 m/s 761 mmHg 88%
    02:00 +10°C° 0 mm 2 m/s 761 mmHg 89%
    03:00 +10°C° 0 mm 3 m/s 761 mmHg 90%
    04:00 +10°C° 0 mm 3 m/s 761 mmHg 88%
    05:00 +11°C° 0 mm 3 m/s 761 mmHg 86%
    06:00 +11°C° 0 mm 3 m/s 761 mmHg 84%
    07:00 +12°C° 0.1 mm 3 m/s 761 mmHg 80%
    08:00 +13°C° 0.1 mm 3 m/s 761 mmHg 76%
    09:00 +14°C° 0.1 mm 3 m/s 761 mmHg 72%
    10:00 +14°C° 0.1 mm 3 m/s 761 mmHg 72%
    11:00 +14°C° 0.1 mm 3 m/s 761 mmHg 72%
    12:00 +16°C° 0.1 mm 3 m/s 761 mmHg 72%
    13:00 +14°C° 0.2 mm 3 m/s 761 mmHg 76%
    14:00 +14°C° 0.2 mm 4 m/s 760 mmHg 80%
    15:00 +14°C° 0.2 mm 4 m/s 760 mmHg 83%
    16:00 +14°C° 0 mm 4 m/s 760 mmHg 81%
    17:00 +14°C° 0 mm 3 m/s 760 mmHg 78%
    18:00 +16°C° 0 mm 3 m/s 760 mmHg 75%
    19:00 +13°C° 0 mm 3 m/s 760 mmHg 80%
    20:00 +12°C° 0 mm 3 m/s 760 mmHg 85%
    21:00 +11°C° 0 mm 3 m/s 760 mmHg 90%
    22:00 +11°C° 0 mm 3 m/s 759 mmHg 90%
    23:00 +11°C° 0 mm 3 m/s 759 mmHg 91%

    11 Iunie, Joi

    Timp Temperatura Precipitaţii Vânt Presiune Umiditate
    00:00 +11°C° 0 mm 3 m/s 759 mmHg 91%
    01:00 +11°C° 0.1 mm 3 m/s 758 mmHg 92%
    02:00 +10°C° 0.1 mm 3 m/s 758 mmHg 92%
    03:00 +10°C° 0.1 mm 4 m/s 757 mmHg 92%
    04:00 +10°C° 0.1 mm 4 m/s 757 mmHg 89%
    05:00 +10°C° 0.1 mm 4 m/s 757 mmHg 87%
    06:00 +10°C° 0.1 mm 4 m/s 757 mmHg 84%
    07:00 +11°C° 0.1 mm 4 m/s 757 mmHg 76%
    08:00 +12°C° 0.1 mm 4 m/s 757 mmHg 68%
    09:00 +14°C° 0.1 mm 4 m/s 756 mmHg 61%
    10:00 +14°C° 0.2 mm 3 m/s 756 mmHg 62%
    11:00 +15°C° 0.2 mm 2 m/s 756 mmHg 64%
    12:00 +15°C° 0.2 mm 2 m/s 756 mmHg 66%
    13:00 +15°C° 0.4 mm 2 m/s 756 mmHg 66%
    14:00 +15°C° 0.4 mm 2 m/s 756 mmHg 66%
    15:00 +16°C° 0.4 mm 2 m/s 756 mmHg 67%
    16:00 +15°C° 0.1 mm 2 m/s 756 mmHg 69%
    17:00 +15°C° 0.1 mm 1 m/s 756 mmHg 71%
    18:00 +15°C° 0.1 mm 1 m/s 756 mmHg 73%
    19:00 +14°C° 0 mm 2 m/s 756 mmHg 77%
    20:00 +13°C° 0 mm 2 m/s 756 mmHg 82%
    21:00 +11°C° 0 mm 3 m/s 757 mmHg 86%
    22:00 +10°C° 0 mm 3 m/s 757 mmHg 88%
    23:00 +10°C° 0 mm 4 m/s 757 mmHg 89%
    Arată mai mult